Flag for China Weather past 2 weeks in Shanghai, Shanghai Municipality, China

Now
48 °F

Passing clouds.


Feels Like: 44 °F
Forecast: 38 / 53 °F
Wind: 10 mph from Northwest

Location: Shanghai Hongqiao Airport

Current Time: Mar 1, 2015 at 3:10:08 PM

Latest Report: Mar 1, 2015 at 2:30 PM


Visibility: 4 mi

Pressure: 30.30 "Hg

Humidity: 54%

Dew point: 32 °F

Location of ShanghaiLocation

Historic Weather in Shanghai — Graph

°F

Shanghai temperature yesterday

Maximum temperature yesterday: 43 °F (at 11:00 AM)
Minimum temperature yesterday: 39 °F (at 5:00 PM)
Average temperature yesterday: 41 °F

Past Weeks' High & Low Weather Summary

 TemperatureHumidityPressure
High66 °F (Feb 15, 4:00 PM)100% (Feb 15, 8:30 AM)30.42 "Hg (Feb 15, 8:30 AM)
Low34 °F (Feb 19, 4:00 AM)29% (Feb 17, 3:00 PM)29.89 "Hg (Feb 15, 3:30 PM)
Average48 °F77%30.16 "Hg
* Reported Feb 14 1:00 PM — Mar 1 1:30 PM, Shanghai, Weather by CustomWeather, © 2015

Note: Actual official high and low records may vary slightly from our data, if they occured in-between our weather recording intervals... More about our weather records

Advertising

Shanghai weather history for previous 24 hours

 ConditionsComfort  
Time TempWeatherWind HumidityBarometerVisibility
1:30 PM
Sun, Mar 1
50 °FPassing clouds.10 mph54%30.27 "Hg4 mi
1:00 PM48 °FPassing clouds.10 mph58%30.30 "Hg4 mi
12:30 PM48 °FScattered clouds.15 mph58%30.33 "Hg4 mi
12:00 PM46 °FScattered clouds.13 mph57%30.33 "Hg4 mi
11:30 AM46 °FPassing clouds.13 mph57%30.33 "Hg4 mi
11:00 AM45 °FClear.13 mph66%30.33 "Hg4 mi
10:30 AM45 °FClear.17 mph61%30.36 "Hg4 mi
10:00 AM43 °FClear.15 mph66%30.36 "Hg4 mi
9:30 AM43 °FClear.13 mph66%30.33 "Hg4 mi
9:00 AM41 °FClear.13 mph70%30.36 "Hg4 mi
8:30 AM39 °FClear.13 mph81%30.36 "Hg4 mi
8:00 AM39 °FClear.13 mph75%30.36 "Hg4 mi
7:30 AM37 °FClear.10 mph81%30.36 "Hg4 mi
7:00 AM37 °FClear.10 mph87%30.36 "Hg4 mi
6:30 AM37 °FScattered clouds.10 mph81%30.33 "HgN/A
6:00 AM37 °FPassing clouds.13 mph81%30.33 "HgN/A
5:30 AM37 °FPassing clouds.10 mph81%30.30 "HgN/A
5:00 AM37 °FOvercast.13 mph81%30.30 "HgN/A
4:30 AM37 °FMostly cloudy.13 mph81%30.30 "HgN/A
4:00 AM37 °FOvercast.13 mph87%30.30 "HgN/A
3:30 AM37 °FOvercast.10 mph87%30.27 "HgN/A
3:00 AM37 °FPassing clouds.13 mph87%30.27 "HgN/A
2:30 AM39 °FPassing clouds.15 mph81%30.30 "HgN/A
2:00 AM39 °FMostly cloudy.13 mph87%30.30 "HgN/A
1:30 AM39 °FMostly cloudy.13 mph87%30.30 "HgN/A
1:00 AM39 °FMostly cloudy.15 mph81%30.30 "HgN/A
12:30 AM39 °FMostly cloudy.15 mph87%30.30 "HgN/A
12:00 AM39 °FMostly cloudy.13 mph87%30.30 "HgN/A
11:30 PM
Sat, Feb 28
39 °FMostly cloudy.13 mph93%30.30 "HgN/A
11:00 PM39 °FMostly cloudy.15 mph87%30.30 "HgN/A
10:30 PM39 °FMostly cloudy.13 mph93%30.27 "HgN/A
10:00 PM39 °FMostly cloudy.13 mph93%30.27 "HgN/A
9:30 PM39 °FMostly cloudy.15 mph93%30.27 "HgN/A
9:00 PM39 °FMostly cloudy.15 mph93%30.24 "HgN/A
8:30 PM39 °FMostly cloudy.13 mph93%30.24 "HgN/A
8:00 PM39 °FMostly cloudy.10 mph93%30.24 "HgN/A
7:30 PM39 °FMostly cloudy.13 mph93%30.24 "HgN/A
7:00 PM39 °FMostly cloudy.10 mph93%30.21 "HgN/A
6:30 PM39 °FMostly cloudy.13 mph93%30.21 "HgN/A
6:00 PM39 °FMostly cloudy.10 mph93%30.21 "Hg4 mi
5:30 PM39 °FLight rain. Mostly cloudy.10 mph93%30.18 "Hg4 mi
5:00 PM39 °FLight rain. Mostly cloudy.13 mph93%30.18 "Hg4 mi
4:30 PM41 °FLight rain. Mostly cloudy.13 mph93%30.18 "Hg4 mi
4:00 PM41 °FLight rain. Mostly cloudy.13 mph93%30.18 "Hg4 mi
3:30 PM41 °FLight rain. Mostly cloudy.13 mph93%30.15 "HgN/A
3:00 PM41 °FLight rain. Mostly cloudy.10 mph100%30.15 "HgN/A
Weather by CustomWeather, © 2015

See weather overviewHow to use our weather pages